Location: Fatehalanka
(16.3139°N, 80.8379°E)
Time: 08:25:16
(UTC+00:00)

ATLAS 2AS CENTAUR R/B - Pass Details

Date: 14 May 2026
Orbit: 1053 x 1158 km, 63.7° (Epoch: 6 June)

Event Time Altitude Azimuth Distance (km) Brightness Sun altitude
Rises 21:56:28 0° 342° (NNW) 3,822 5.8 -28.9°
Reaches altitude 10° 21:59:08 10° 346° (NNW) 2,874 5.1 -28.3°
Maximum altitude 22:05:48 58° 64° (ENE) 1,228 3.2 -27.0°
Drops below altitude 10° 22:12:35 10° 143° (SE) 2,928 5.0 -25.6°
Sets 22:15:19 0° 147° (SSE) 3,900 5.7 -25.0°
